EW8744 Weather Reports


time (UTC)temp
F
wind
direction
speed
knots
gust
knots
rain 1hr
in
rain 24hr
in
rain mn
in
humidity
%
barometer
mb
20260509222712 91 0 0.9 4.3 0.00 0.06 0.06 41 1006.6
20260509222206 91 0 0.9 4.3 0.00 0.06 0.06 43 1006.5
20260509221700 91 0 0.0 1.7 0.00 0.06 0.06 43 1006.5
20260509221414 91 0 0.0 3.5 0.00 0.06 0.06 40 1006.6
20260509220648 91 0 0.0 3.5 0.00 0.06 0.06 40 1006.6
20260509220142 91 0 0.9 4.3 0.00 0.06 0.06 39 1006.6
20260509215636 92 0 0.9 4.3 0.00 0.06 0.06 38 1006.6
20260509215619 92 0 1.7 4.3 0.00 0.06 0.06 42 1006.7
20260509214626 92 0 0.9 4.3 0.00 0.06 0.06 41 1006.7
20260509214329 92 0 0.0 2.6 0.00 0.06 0.06 40 1006.9
20260509214217 92 0 0.9 3.5 0.00 0.06 0.06 40 1006.7
20260509213722 92 0 0.9 3.5 0.00 0.06 0.06 41 1006.8
20260509212626 92 0 0.0 1.7 0.00 0.06 0.06 41 1006.9
20260509212126 92 0 0.0 1.7 0.00 0.06 0.06 42 1006.9
20260509211627 91 0 0.0 1.7 0.00 0.06 0.06 41 1007.0
20260509211125 91 0 0.0 4.3 0.00 0.06 0.06 42 1007.1
20260509210627 91 0 0.9 4.3 0.00 0.06 0.06 42 1007.3
20260509210126 91 0 0.9 3.5 0.00 0.06 0.06 42 1007.3
20260509205626 91 0 0.9 3.5 0.00 0.06 0.06 43 1007.4
20260509205123 91 0 0.9 3.5 0.00 0.06 0.06 42 1007.4
20260509204621 90 0 0.0 2.6 0.00 0.06 0.06 44 1007.4
20260509204121 90 0 0.9 4.3 0.00 0.06 0.06 44 1007.6
20260509203621 89 0 0.9 4.3 0.00 0.06 0.06 46 1007.7
20260509203120 89 0 0.9 4.3 0.00 0.06 0.06 43 1007.8
20260509202620 89 0 0.0 2.6 0.00 0.06 0.06 43 1007.9
20260509202120 89 0 0.0 2.6 0.00 0.06 0.06 44 1007.9
20260509201613 88 0 0.0 1.7 0.00 0.06 0.06 45 1008.0
20260509201332 88 0 0.9 4.3 0.00 0.06 0.06 45 1008.0
20260509200602 88 0 0.9 4.3 0.00 0.06 0.06 45 1008.1
20260509200057 88 0 0.0 1.7 0.00 0.06 0.06 45 1008.1
20260509195550 88 0 0.0 0.9 0.00 0.06 0.06 45 1008.2
20260509195043 88 0 0.0 0.9 0.00 0.06 0.06 45 1008.3
20260509194538 88 0 0.0 3.5 0.00 0.06 0.06 48 1008.3
20260509194250 88 0 0.9 3.5 0.00 0.06 0.06 46 1008.4
20260509193526 88 0 0.0 3.5 0.00 0.06 0.06 47 1008.4
20260509193020 88 0 0.0 3.5 0.00 0.06 0.06 46 1008.4
20260509192513 87 0 0.0 2.6 0.00 0.06 0.06 47 1008.5
20260509192008 88 0 0.0 2.6 0.00 0.06 0.06 46 1008.5
20260509191502 88 0 0.0 3.5 0.00 0.06 0.06 46 1008.6
20260509191226 88 0 0.9 4.3 0.00 0.06 0.06 47 1008.6
20260509190450 88 0 0.9 4.3 0.00 0.06 0.06 50 1008.7
20260509185944 88 0 0.0 2.6 0.00 0.06 0.06 47 1008.8
20260509185438 88 0 0.0 2.6 0.00 0.06 0.06 50 1008.8
20260509184932 87 0 0.0 3.5 0.00 0.06 0.06 48 1008.8
20260509184645 87 0 0.0 2.6 0.00 0.06 0.06 50 1008.9
20260509183919 87 0 0.0 2.6 0.00 0.06 0.06 51 1008.8
20260509183414 86 0 0.0 1.7 0.00 0.06 0.06 51 1008.9
20260509182908 86 0 0.0 2.6 0.00 0.06 0.06 51 1008.9
20260509182402 86 0 0.0 2.6 0.00 0.06 0.06 50 1009.1
20260509181856 86 0 0.0 1.7 0.00 0.06 0.06 50 1009.2
20260509181350 86 0 0.0 1.7 0.00 0.06 0.06 51 1009.2
20260509180844 86 0 0.0 2.6 0.00 0.06 0.06 51 1009.3
20260509180338 86 0 0.0 2.6 0.00 0.06 0.06 52 1009.4
20260509180057 85 0 0.0 0.9 0.00 0.06 0.06 52 1009.4
20260509175326 85 0 0.0 2.6 0.00 0.06 0.06 53 1009.5
20260509174820 85 0 0.0 2.6 0.00 0.06 0.06 53 1009.5
20260509174313 85 0 0.0 0.9 0.00 0.06 0.06 54 1009.6
20260509173808 85 0 0.0 0.9 0.00 0.06 0.06 52 1009.6
20260509173302 85 0 0.0 0.9 0.00 0.06 0.06 53 1009.7
20260509172755 84 0 0.0 2.6 0.00 0.06 0.06 54 1009.8
20260509172516 84 0 0.0 2.6 0.00 0.06 0.06 55 1009.8
20260509171757 83 0 0.0 2.6 0.00 0.06 0.06 54 1009.8
20260509171255 84 0 0.0 2.6 0.00 0.06 0.06 55 1009.8
20260509170754 83 0 0.0 1.7 0.00 0.06 0.06 56 1009.8
20260509170256 83 0 0.0 1.7 0.00 0.06 0.06 57 1009.9
20260509165755 83 0 0.0 1.7 0.00 0.06 0.06 56 1009.9
20260509165253 82 0 0.0 1.7 0.00 0.06 0.06 58 1010.0
20260509164750 82 0 0.0 1.7 0.00 0.06 0.06 58 1010.0
20260509164303 82 0 0.0 2.6 0.00 0.06 0.06 58 1010.0
20260509163752 82 0 0.0 2.6 0.00 0.06 0.06 59 1010.1
20260509163252 82 0 0.0 0.9 0.00 0.06 0.06 60 1010.1
20260509162752 81 0 0.0 0.9 0.00 0.06 0.06 60 1010.1
20260509162252 81 0 0.0 0.9 0.00 0.06 0.06 61 1010.1
20260509161752 81 0 0.0 0.9 0.00 0.06 0.06 61 1010.1
20260509161258 80 0 0.0 0.9 0.00 0.06 0.06 61 1010.1
20260509160748 80 0 0.0 2.6 0.00 0.06 0.06 62 1010.0
20260509160508 81 0 0.0 2.6 0.00 0.06 0.06 60 1010.1
20260509160007 80 0 0.0 0.9 0.00 0.06 0.06 60 1010.1
20260509155512 80 0 0.0 0.9 0.00 0.06 0.06 62 1010.1
20260509154749 80 0 0.0 1.7 0.00 0.06 0.06 64 1010.1
20260509154249 79 0 0.0 1.7 0.00 0.06 0.06 64 1010.1
20260509153748 79 0 0.0 0.9 0.00 0.06 0.06 65 1010.1
20260509153250 79 0 0.0 0.9 0.00 0.06 0.06 65 1010.1
20260509152750 78 0 0.0 0.9 0.00 0.06 0.06 66 1010.1
20260509152249 78 0 0.0 1.7 0.00 0.06 0.06 69 1010.3
20260509152007 77 0 0.0 1.7 0.00 0.06 0.06 69 1010.1
20260509151250 77 0 0.0 2.6 0.00 0.06 0.06 71 1010.3
20260509150749 76 0 0.0 2.6 0.00 0.06 0.06 71 1010.3
20260509150249 76 0 0.0 1.7 0.00 0.06 0.06 73 1010.3
20260509145748 76 0 0.0 1.7 0.00 0.06 0.06 73 1010.4
20260509145250 75 0 0.0 1.7 0.00 0.06 0.06 74 1010.3
20260509144748 75 0 0.0 2.6 0.00 0.06 0.06 76 1010.3
20260509144249 74 0 0.0 2.6 0.00 0.06 0.06 78 1010.4
20260509143749 74 0 0.0 1.7 0.00 0.06 0.06 78 1010.4
20260509143246 73 0 0.0 0.9 0.00 0.06 0.06 78 1010.4
20260509142746 73 0 0.0 1.7 0.00 0.06 0.06 79 1010.4
20260509142246 73 0 0.0 1.7 0.00 0.06 0.06 80 1010.4
20260509141744 72 0 0.0 1.7 0.00 0.06 0.06 82 1010.4
20260509141241 72 0 0.0 1.7 0.00 0.06 0.06 82 1010.4
20260509140738 72 0 0.0 1.7 0.00 0.06 0.06 82 1010.3
20260509140237 71 0 0.0 1.7 0.00 0.06 0.06 83 1010.1
20260509135736 71 0 0.0 1.7 0.00 0.06 0.06 86 1010.3
20260509135457 71 0 0.0 4.3 0.00 0.06 0.06 87 1010.1
20260509134955 71 0 0.0 4.3 0.00 0.06 0.06 89 1010.0
20260509134223 70 0 0.0 2.6 0.00 0.06 0.06 91 1010.0
20260509133717 70 0 0.0 1.7 0.00 0.06 0.06 91 1009.9
20260509133211 70 0 0.0 1.7 0.00 0.06 0.06 93 1009.8
20260509132705 69 0 0.0 1.7 0.00 0.06 0.06 94 1009.7
20260509132158 69 0 0.0 0.9 0.00 0.06 0.06 94 1009.7
20260509131653 68 0 0.0 1.7 0.00 0.06 0.06 95 1009.5
20260509131643 68 0 0.0 1.7 0.00 0.06 0.06 95 1009.3
20260509130903 67 0 0.0 1.7 0.00 0.06 0.06 95 1009.1
20260509130359 67 0 0.0 0.9 0.00 0.06 0.06 95 1009.1
20260509125628 66 0 0.0 0.9 0.00 0.06 0.06 95 1009.0
20260509125123 66 0 0.0 0.9 0.00 0.06 0.06 95 1008.8
20260509124620 66 0 0.0 1.7 0.00 0.06 0.06 95 1008.6
20260509124344 66 0 0.0 1.7 0.00 0.06 0.06 95 1008.8
20260509123620 65 0 0.0 1.7 0.00 0.06 0.06 95 1008.6
20260509123116 65 0 0.0 1.7 0.00 0.06 0.06 95 1008.5
20260509122616 65 0 0.0 1.7 0.00 0.06 0.06 95 1008.4
20260509122116 65 0 0.9 1.7 0.00 0.06 0.06 95 1008.4
20260509121847 65 0 0.9 0.0 0.00 0.06 0.06 95 1008.4
20260509121114 65 0.0 0.0 0.00 0.06 0.06 95 1008.4
20260509120555 65 0.0 0.0 0.00 0.06 0.06 95 1008.4
20260509120037 65 0.0 0.0 0.00 0.06 0.06 95 1008.4
20260509115531 65 0.0 0.0 0.00 0.06 0.06 95 1008.5
20260509115024 65 0.0 0.0 0.00 0.06 0.06 95 1008.4
20260509114524 66 0.0 0.0 0.00 0.06 0.06 95 1008.4
20260509114245 66 0.0 0.0 0.00 0.06 0.06 95 1008.3
20260509113521 66 0.0 0.0 0.00 0.06 0.06 95 1008.3
20260509113218 66 0.0 0.0 0.00 0.06 0.06 95 1008.3
20260509112450 66 0.0 0.0 0.00 0.06 0.06 95 1008.3
20260509111925 66 0.0 0.0 0.00 0.06 0.06 95 1008.2
20260509111422 66 0.0 0.0 0.00 0.06 0.06 95 1008.3
20260509110921 66 0.0 0.0 0.00 0.06 0.06 95 1008.1
20260509110616 67 0.0 0.0 0.00 0.06 0.06 95 1008.0
20260509105827 67 0.0 0.0 0.00 0.06 0.06 95 1008.1
20260509105322 67 0.0 0.0 0.00 0.06 0.06 95 1007.9
20260509104736 67 0.0 0.0 0.00 0.06 0.06 95 1007.7
20260509104229 67 0.0 0.0 0.00 0.06 0.06 95 1007.7
20260509103723 67 0.0 0.0 0.00 0.06 0.06 95 1007.7
20260509103222 67 0.0 0.0 0.00 0.06 0.06 95 1007.4
20260509102711 67 0.0 0.0 0.00 0.06 0.06 95 1007.4
20260509102153 67 0.0 0.0 0.00 0.06 0.06 95 1007.4
20260509101649 67 0.0 0.0 0.00 0.06 0.06 95 1007.4
20260509101608 67 0.0 0.0 0.00 0.06 0.06 95 1006.7
20260509100625 67 0.0 0.0 0.00 0.06 0.06 95 1006.7
20260509100123 66 0.0 0.0 0.00 0.06 0.06 95 1006.4
20260509095623 66 0.0 0.0 0.00 0.06 0.06 95 1006.2
20260509095337 66 0.0 0.0 0.00 0.06 0.06 95 1006.0
20260509094615 66 0.0 0.0 0.00 0.06 0.06 95 1006.2
20260509094109 66 0.0 0.0 0.00 0.06 0.06 95 1006.6
20260509093545 66 0.0 0.0 0.00 0.06 0.06 95 1007.0
20260509093026 67 0.0 0.0 0.00 0.06 0.06 95 1007.2
20260509092527 67 0.0 0.0 0.00 0.06 0.06 95 1007.0
20260509092019 67 0.0 0.0 0.00 0.06 0.06 95 1007.0
20260509091514 67 0.0 0.0 0.00 0.06 0.06 95 1007.3
20260509091005 67 0.0 0.0 0.01 0.06 0.06 95 1007.9
20260509090459 67 0.0 0.0 0.01 0.06 0.06 95 1008.0
20260509085937 67 0.0 0.0 0.01 0.06 0.06 95 1008.3
20260509085431 67 0.0 0.0 0.01 0.06 0.06 95 1008.3
20260509084925 67 0.0 0.0 0.01 0.06 0.06 95 1008.0
20260509084423 67 0.0 0.0 0.02 0.06 0.06 95 1008.4
20260509083919 67 0.0 0.0 0.02 0.06 0.06 95 1008.7
20260509083421 67 0.0 0.0 0.05 0.06 0.06 95 1008.6
20260509082902 67 0.0 0.0 0.06 0.06 0.06 95 1008.9
20260509082341 67 0.0 0.0 0.06 0.06 0.06 94 1009.1
20260509081826 67 0.0 0.0 0.06 0.06 0.06 94 1009.4
20260509081325 67 0.0 0.0 0.06 0.06 0.06 94 1009.3
20260509080821 67 0.0 0.0 0.05 0.05 0.05 94 1009.5
20260509080321 67 0.0 0.0 0.05 0.05 0.05 94 1009.7
20260509075807 67 0.0 0.0 0.05 0.05 0.05 94 1009.8
20260509075249 67 0.0 0.0 0.05 0.05 0.05 94 1010.1
20260509074747 67 0.0 0.0 0.05 0.05 0.05 94 1010.5
20260509074230 67 0.0 0.0 0.04 0.04 0.04 94 1010.6
20260509073725 67 0.0 0.0 0.03 0.03 0.04 94 1010.7
20260509073218 67 0.0 0.0 0.01 0.01 0.01 94 1010.9
20260509072718 67 0.0 0.0 0.00 0.00 0.00 94 1011.1
20260509072203 67 0.0 0.0 0.00 0.00 0.00 94 1011.2
20260509071645 67 0.0 0.0 0.00 0.00 0.00 94 1011.4
20260509071135 67 0.0 0.0 0.00 0.00 0.00 94 1011.2
20260509070629 67 0.0 0.0 0.00 0.00 0.00 94 1011.3
20260509070347 67 0.0 0.0 0.00 0.00 0.00 93 1011.1
20260509065841 67 0.0 0.0 0.00 0.00 0.00 93 1010.8
20260509065055 66 0.0 0.0 0.00 0.00 0.00 93 1010.4
20260509064551 66 0.0 0.0 0.00 0.00 0.00 93 1010.6
20260509064024 66 0.0 0.0 0.00 0.00 0.00 93 1010.0
20260509063523 66 0.0 0.0 0.00 0.00 0.00 93 1009.6
20260509063023 66 0.0 0.0 0.00 0.00 0.00 93 1008.9
20260509062522 66 0.0 0.0 0.00 0.00 0.00 93 1008.8
20260509062023 66 0.0 0.0 0.00 0.00 0.00 92 1008.7
20260509061508 66 0.0 0.0 0.00 0.00 0.00 92 1008.9
20260509061221 66 0.0 0.0 0.00 0.00 0.00 92 1009.1
20260509060705 66 0.0 0.0 0.00 0.00 0.00 92 1009.2
20260509055928 66 0.0 0.0 0.00 0.00 0.00 92 1009.4
20260509055424 66 0.0 0.0 0.00 0.00 0.00 92 1009.3
20260509054925 67 0.0 0.0 0.00 0.00 0.00 92 1009.3
20260509054425 67 0.0 0.0 0.00 0.00 0.00 92 1009.3
20260509053923 67 0.0 0.0 0.00 0.00 0.00 92 1009.4
20260509053606 67 0.0 0.0 0.00 0.00 0.00 92 1009.2
20260509052842 67 0.0 0.0 0.00 0.00 0.00 92 1009.0
20260509052322 67 0.0 0.0 0.00 0.00 0.00 92 1008.9
20260509051823 67 0.0 0.0 0.00 0.00 0.00 92 1009.0
20260509051535 67 0.0 0.0 0.00 0.00 0.00 92 1008.8
20260509050803 67 0.0 0.0 0.00 0.00 0.00 92 1008.5
20260509050515 67 0.0 0.0 0.00 0.00 0.00 92 1008.4
20260509045732 67 0.0 0.0 0.00 0.00 0.00 92 1008.6
20260509045223 67 0.0 0.0 0.00 0.00 0.00 92 1008.7
20260509044719 67 0.0 0.0 0.00 0.00 0.00 91 1008.6
20260509043911 67 0.0 0.0 0.00 0.00 0.00 91 1008.6
20260509043119 68 0.0 0.0 0.00 0.00 0.00 91 1008.6
20260509042609 68 0.0 0.0 0.00 0.00 0.00 91 1008.7
20260509042057 68 0.0 0.0 0.00 0.00 0.00 91 1008.7
20260509041539 68 0.0 0.0 0.00 0.00 0.00 91 1008.7
20260509041026 68 0.0 0.0 0.00 0.00 0.00 91 1008.7
20260509040523 68 0.0 0.0 0.00 0.00 0.00 91 1008.8
20260509040021 68 0.0 0.0 0.00 0.00 0.00 91 1008.7
20260509035520 68 0.0 0.0 0.00 0.00 0.00 91 1008.8
20260509035021 68 0.0 0.0 0.00 0.00 0.00 90 1008.8
20260509034718 68 0.0 0.0 0.00 0.00 0.00 90 1008.9
20260509034147 68 0.0 0.0 0.00 0.00 0.00 90 1008.9
20260509033421 68 0.0 0.0 0.00 0.00 0.00 90 1008.8
20260509032921 68 0.0 0.0 0.00 0.00 0.00 90 1008.6
20260509032421 68 0.0 0.0 0.00 0.00 0.00 90 1008.7
20260509032145 68 0.0 0.0 0.00 0.00 0.00 90 1008.7
20260509031350 68 0.0 0.0 0.00 0.00 0.00 90 1008.6
20260509030831 68 0.0 0.0 0.00 0.00 0.00 89 1008.5
20260509030547 68 0.0 0.0 0.00 0.00 0.00 89 1008.4
20260509025821 68 0.0 0.0 0.00 0.00 0.00 89 1008.2
20260509025306 69 0.0 0.0 0.00 0.00 0.00 88 1008.1
20260509024759 69 0.0 0.0 0.00 0.00 0.00 88 1008.0
20260509024229 69 0.0 0.0 0.00 0.00 0.00 87 1008.0
20260509023721 69 0.0 0.0 0.00 0.00 0.00 87 1008.0
20260509023159 69 0.0 0.0 0.00 0.00 0.00 86 1008.1
20260509022637 69 0.0 0.0 0.00 0.00 0.00 86 1008.1
20260509022354 69 0.0 0.0 0.00 0.00 0.00 86 1008.1
20260509021626 70 0.0 0.0 0.00 0.00 0.00 85 1008.0
20260509021127 70 0.0 0.0 0.00 0.00 0.00 85 1008.0
20260509020619 70 0.0 0.0 0.00 0.00 0.00 85 1007.9
20260509020110 70 0.0 0.0 0.00 0.00 0.00 84 1007.9
20260509015535 71 0.0 0.0 0.00 0.00 0.00 84 1007.8
20260509015030 71 0.0 0.0 0.00 0.00 0.00 84 1007.9
20260509015007 71 0.0 0.0 0.00 0.00 0.00 84 1007.8
20260509014025 71 0.0 0.0 0.00 0.00 0.00 84 1007.8
20260509013526 71 0.0 0.0 0.00 0.00 0.00 84 1007.6
20260509013023 71 0.0 0.0 0.00 0.00 0.00 84 1007.4
20260509012456 72 0.0 0.0 0.00 0.00 0.00 83 1007.2
20260509011927 72 0 0.9 0.9 0.00 0.00 0.00 83 1007.1
20260509011424 72 0 0.9 3.5 0.00 0.00 0.00 83 1007.0
20260509010921 72 0 0.9 3.5 0.00 0.00 0.00 83 1007.0
20260509010648 73 0 0.9 3.5 0.00 0.00 0.00 82 1007.0
20260509005921 73 0 0.9 3.5 0.00 0.00 0.00 81 1007.0
20260509005418 73 0 0.9 4.3 0.00 0.00 0.00 81 1007.0
20260509004918 73 0 1.7 4.3 0.00 0.00 0.00 81 1006.9
20260509004640 74 0 2.6 7.0 0.00 0.00 0.00 80 1006.7
20260509003918 74 0 2.6 7.8 0.00 0.00 0.00 80 1006.6
20260509003411 74 0 3.5 7.8 0.00 0.00 0.00 79 1006.5
20260509002904 74 0 3.5 7.8 0.00 0.00 0.00 79 1006.6
20260509002358 74 0 3.5 8.7 0.00 0.00 0.00 78 1006.6
20260509002124 75 0 2.6 8.7 0.00 0.00 0.00 78 1006.6
20260509001346 75 0 2.6 7.0 0.00 0.00 0.00 78 1006.7
20260509000840 75 0 1.7 5.2 0.00 0.00 0.00 79 1006.8
20260509000334 75 0 1.7 5.2 0.00 0.00 0.00 78 1006.8
20260508235828 75 0 1.7 5.2 0.00 0.00 0.00 77 1006.9
20260508235321 75 0 1.7 7.0 0.00 0.00 0.00 77 1006.8
20260508235035 76 0 1.7 7.0 0.00 0.00 0.00 76 1006.8
20260508234310 76 0 2.6 7.0 0.00 0.00 0.00 77 1006.8
20260508233804 76 0 2.6 9.6 0.00 0.00 0.00 77 1006.8
20260508233258 75 0 2.6 9.6 0.00 0.00 0.00 77 1006.9
20260508232751 76 0 2.6 7.8 0.00 0.00 0.00 76 1007.0
20260508232246 76 0 2.6 7.8 0.00 0.00 0.00 75 1007.0
20260508231739 76 0 2.6 7.0 0.00 0.00 0.00 75 1006.9
20260508231234 76 0 2.6 7.0 0.00 0.00 0.00 75 1006.9
20260508230728 76 0 1.7 5.2 0.00 0.00 0.00 75 1006.9
20260508230440 76 0 1.7 5.2 0.00 0.00 0.00 74 1006.9
20260508225716 76 0 2.6 7.0 0.00 0.00 0.00 73 1006.9
20260508225210 77 0 2.6 7.0 0.00 0.00 0.00 73 1007.0
20260508224704 77 0 1.7 5.2 0.00 0.00 0.00 72 1007.0
20260508224158 77 0 1.7 4.3 0.00 0.00 0.00 72 1007.0
20260508224139 78 0 2.6 7.0 0.00 0.00 0.00 72 1007.0
20260508223150 78 0 2.6 7.0 0.00 0.00 0.00 71 1007.0